Simultaneous Nadir Overpasses (SNOs) Predictions

Prediction of SNOs between TERRA and METOP-C Satellite Orbit:

Table of predicted SNOs for the next 14.0 days since TLE Epoch: 5/4/2019
Index Date (TERRA) Time (TERRA) Lat,Lon (TERRA) SZA (TERRA ) Date (METOP-C) Time (METOP-C) Lat,Lon (METOP-C) SZA (METOP-C ) Distance(km) Time Diff (sec)
1 05/06/2019 09:27:57 -81.30, -94.71 112.22 05/06/2019 09:26:53 -81.30, -94.58 112.24 2.23 64
2 05/06/2019 10:17:24 81.29, 72.76 67.75 05/06/2019 10:17:34 81.30, 72.63 67.74 2.15 10
3 05/09/2019 05:02:12 -81.28, -28.60 113.04 05/09/2019 05:01:17 -81.29, -28.64 113.06 1.00 55
4 05/09/2019 05:51:38 81.29, 139.21 66.99 05/09/2019 05:51:56 81.30, 139.28 67.01 1.37 18
5 05/12/2019 00:36:26 -81.30, 38.20 113.71 05/12/2019 00:35:40 -81.29, 38.08 113.75 2.31 46
6 05/12/2019 01:25:53 81.29,-154.41 66.25 05/12/2019 01:26:20 81.30,-154.46 66.26 1.22 27
7 05/14/2019 20:10:41 -81.30, 104.56 114.41 05/14/2019 20:10:04 -81.29, 104.41 114.45 2.70 37
8 05/14/2019 21:00:07 81.30, -87.71 65.60 05/14/2019 21:00:43 81.30, -87.81 65.61 1.86 36
9 05/17/2019 15:44:55 -81.29, 170.86 115.08 05/17/2019 15:44:27 -81.29, 170.73 115.11 2.11 28




NCC Satellite Simultaneous Nadir Overpasses (SNOs) Prediction Service
